STARLINK-5510 (55647 NORAD) Tracking and Keplerian Element Data

This shows tracking and keplerian element data for the satellite.

Feedback or suggestion? Click here.




ElementValue
Catalog55647
NameSTARLINK-5510
Epoch Orbit625
Epoch Day85.1708385
Epoch Year2023
RAAN47.5921
Inclination70.0029
Eccentricity0.0003343
Argument of Perigee264.1698
Mean Anonmoly95.9116
Mean Motion15.69935045
Decay Rate3.699E-05
L11 55647U 23021V 23085.17083850 .00003699 00000+0 32504-4 0 9999
L22 55647 70.0029 47.5921 0003343 264.1698 95.9116 15.69935045 6255



Live tracking and technical data element details for STARLINK-5510 (NORAD 55647). STARLINK-5510 can be tracked NOW for your location showing map with azimuth and elevation plus other details from your city location.







IsCatalogInMostPopularTable: catalog: 55647, numindb: 3
Update: records affected: 1



GetName: 55647 STARLINK-5510

Hit Count: updated at: Tue, 28 Mar 2023 02:43:56 GMT